Tracking 26325 objects as of 28-Nov-2022
HD Live streaming from Space Station
objects crossing your sky now

BREEZE-KM R/B

Track BREEZE-KM R/B now!
10-day predictions


NORAD ID: 41580
Int'l Code: 2016-034B
Perigee: 663.3 km
Apogee: 967.0 km
Inclination: 99.2 °
Period: 101.0 minutes
Semi major axis: 7186 km
RCS: Unknown
Launch date: June 4, 2016
Source: Commonwealth of Independent States (former USSR) (CIS)
Launch site: PLESETSK MISSILE AND SPACE COMPLEX (PKMTR)

Note: This is a ROCKET BODY
aabbcc
Your satellite tracking list
Your tracking list is empty




NASA's NSSDC Master Catalog

Two Line Element Set (TLE):
1 41580U 16034B   22331.63358069  .00000031  00000-0  29261-4 0  9991
2 41580  99.1648 110.8807 0211304 307.4077  50.8030 14.25138257337110
Source of the keplerian elements: AFSPC